EGCK

Details ICAO EGCK
Name Caernarfon
Region United Kingdom
Timezone Europe/London (UTC+0.0)
Plans Departing 92
Arriving 92
Stats Elevation 13 ft / 4 m (AMSL)
Location 53.103100° -4.338720°
Runways 2
Magnetic Variation 1.699° W
Sunrise 2021-02-28 07:08:18 UTC / 2021-02-28 07:08:18 Local
Sunset 2021-02-28 17:54:25 UTC / 2021-02-28 17:54:25 Local
Advertisement - Login to hide

Runways

ID Width Length Bearing (true/mag) Surface Threshold Overrun Markings Lighting
02 75 ft / 23 m 3,500 ft / 1,067 m 13.18° / 14.88° ASPHALT 253 ft / 77 m 0 ft / 0 m VISUAL CENTERLINE EDGE THRESHOLD
07 75 ft / 23 m 2,995 ft / 913 m 70.77° / 72.47° ASPHALT 151 ft / 46 m 0 ft / 0 m VISUAL CENTERLINE EDGE THRESHOLD
20 75 ft / 23 m 3,500 ft / 1,067 m 193.18° / 194.88° ASPHALT 0 ft / 0 m 0 ft / 0 m VISUAL CENTERLINE EDGE THRESHOLD
25 75 ft / 23 m 2,995 ft / 913 m 250.78° / 252.48° ASPHALT 266 ft / 81 m 0 ft / 0 m VISUAL CENTERLINE EDGE THRESHOLD

Map

Weather


0- 5 10 15 20 25 30 35+ Temperature / °C

Clouds and Precipitation
Forecast for 2021-02-28 18:00 UTC. Updated an hour ago

Ground ~20,000 ft ~40,000 ft Winds

METAR

EGCK 281620Z AUTO VRB06KT 9999 NCD 10/05 Q1035

TAF

Not found

Frequencies

Tower 122.25 MHz Caernarfon Radio
Warning: Do not use this data for real-world aviation or navigation. No guarantee of current accuracy is given.